Regional Weather Roundup
Issued by NWS

Home | Current Version | Previous Version | Graphics & Text | Print | Product List | Glossary On
Versions: 1 2 3 4 5 6 7 8 9 10 11 12 13 14 15 16 17 18 19 20 21 22 23 24 25 26 27 28 29 30 31 32 33 34 35 36 37 38 39 40 41 42 43 44 45 46 47 48 49 50
000
ASUS43 KMPX 180901
RWRMN
WEATHER ROUNDUP FOR MINNESOTA
NATIONAL WEATHER SERVICE TWIN CITIES/CHANHASSEN MN
400 AM CDT THU SEP 18 2014


NOTE: "FAIR" INDICATES FEW OR NO CLOUDS BELOW 12,000 FEET WITH NO
SIGNIFICANT WEATHER AND/OR OBSTRUCTIONS TO VISIBILITY. N/A MEANS
CURRENT SKY AND/OR WEATHER CONDITIONS ARE NOT AVAILABLE.

MNZ060>063-068>070-181000-
   Twin Cities Metro

CITY           SKY/WX    TMP DP  RH WIND       PRES   REMARKS
TWIN CITIES    CLEAR     50  47  89 NE7       30.06S
ST PAUL        CLEAR     49  47  93 NE5       30.07S
CRYSTAL        CLEAR     49  45  86 NE6       30.06S
BLAINE         CLEAR     46  46 100 N5        30.07S
LAKEVILLE      CLEAR     48  48 100 CALM      30.05S
EDEN PRAIRIE     N/A    N/A N/A N/A MISG      30.04S
SOUTH ST PAUL  CLEAR     51  48  90 NE3       30.06S
LAKE ELMO      FAIR      46  45  93 NE5       30.07S
$$
MNZ001>005-007-008-013>017-022>024-027-028-181000-
   Northwest Minnesota

CITY           SKY/WX    TMP DP  RH WIND       PRES   REMARKS
BEMIDJI        CLOUDY    46  45  97 SE12      30.07S
HALLOCK        CLEAR     39  37  93 E6        30.04F
ROSEAU         CLEAR     37  32  81 E5        30.07S
WARROAD        CLEAR     39  36  87 SE7       30.08S
THIEF RVR FALL CLOUDY    43  41  93 E7        30.04F
CROOKSTON      CLEAR     45  43  93 E5        30.03F
FOSSTON        CLOUDY    46  45  93 SE5       30.04S FOG
DETROIT LAKES  CLOUDY    48  46  93 SE12      30.05S FOG
MOORHEAD       CLEAR     45  45 100 CALM      30.01F
PARK RAPIDS    CLOUDY    45  44  97 SE8       30.07S
MAHNOMEN       FAIR      47  46  95 SE6       30.02S
$$
MNZ006-009>011-018-025>026-181000-
   North Central Minnesota

CITY           SKY/WX    TMP DP  RH WIND       PRES   REMARKS
BAUDETTE       MOCLDY    39  37  92 SE7       30.09S
FLAG ISLAND    MOCLDY    46  39  76 SE13      30.06F
INTL FALLS     CLOUDY    41  40  96 SE6       30.11S
WASKISH        CLOUDY    43  43 100 CALM      30.08S
BIG FORK       CLOUDY    43  39  87 S7        30.12R
LONGVILLE      CLOUDY    43  39  87 CALM      30.10S
GRAND RAPIDS   CLOUDY    43  39  87 SE7       30.11S
CRANE LAKE     CLOUDY    39  37  93 CALM      30.15S
ORR            CLOUDY    39  37  93 SE8       30.11S
COOK           CLOUDY    41  39  93 SE5       30.13F
WALKER         CLOUDY    44  40  87 SE7       30.09S
$$
MNZ012-019>021-037-181000-
   Northeast Minnesota

CITY           SKY/WX    TMP DP  RH WIND       PRES   REMARKS
DULUTH         CLOUDY    44  37  76 E9        30.13S
ELY            CLOUDY    39  37  93 SE3       30.14S
HIBBING        CLOUDY    44  40  85 SE8       30.13S
EVELETH        CLOUDY    43  37  81 SE5       30.14S
DULUTH HARBOR  CLOUDY    46  41  81 E15       30.16S
TWO HARBORS    CLOUDY    43  36  75 E7        30.13F
SILVER BAY     PTCLDY    41  37  87 CALM      30.14F
GRAND MARAIS     N/A     46  35  65 E7        30.18S
G MARAIS ARPRT CLOUDY    37  34  87 E3        30.16F
$$
MNZ029>031-032-039>041-046>048-054>057-064-181000-
   West Central Minnesota

CITY           SKY/WX    TMP DP  RH WIND       PRES   REMARKS
FERGUS FALLS   CLEAR     54  52  94 E6        30.02S
WHEATON        CLEAR     43  41  93 E3        30.02S
MORRIS         CLEAR     54  52  94 E9        30.01R FOG
ALEXANDRIA     FOG       49  48  97 E10       30.06R VSB 1/4
ELBOW LAKE     FAIR      52  51  96 E12       30.01S
WADENA         FOG       46  45  93 E8        30.06S VSB 1
GLENWOOD       FOG       48  48 100 E10       30.05S VSB 1/2
APPLETON       CLEAR     54  50  87 E7        30.00R
BENSON         CLEAR     52  52 100 E9        30.02S
ORTONVILLE     CLEAR     52  48  87 CALM      30.00R FOG
MADISON        FOG       50  48  93 CALM      29.99S VSB 1/2
WILLMAR        FAIR      54  50  87 E9        30.05R
$$
MNZ033>034-036-042>043-049>051-058-059-181000-
   Central Minnesota

CITY           SKY/WX    TMP DP  RH WIND       PRES   REMARKS
ST CLOUD       CLOUDY    49  45  86 E7        30.08S
SAUK CENTRE    FOG       47  47  99 E10       30.06S VSB 1/2
PAYNESVILLE    CLOUDY    47  47 100 N9        30.06S FOG
AITKIN         CLEAR     43  37  81 CALM      30.10S
PINE RIVER     CLOUDY    45  43  93 E5        30.12S
BRAINERD       CLOUDY    47  44  90 VRB6      30.09S
STAPLES        CLOUDY    46  45  93 E5        30.08R
LONG PRAIRIE   FOG       45  45 100 NE6       30.07S VSB 1/4
LITTLE FALLS   CLOUDY    46  45  93 E5        30.09R
LITCHFIELD     CLOUDY    52  52 100 E8        30.06R FOG
BUFFALO        MOCLDY    47  44  89 NE8       30.07S
MAPLE LAKE     CLOUDY    48  47  95 NE8       30.07S
$$
MNZ037-044-045-052-053-181000-
   East Central Minnesota

CITY           SKY/WX    TMP DP  RH WIND       PRES   REMARKS
PRINCETON      CLOUDY    46  45  93 NE3       30.09S
MORA           PTCLDY    39  36  87 E3        30.11F
CAMBRIDGE      CLOUDY    48  39  71 NE5       30.07S
RUSH CITY      CLOUDY    45  42  91 NE6       30.09F
MOOSE LAKE     PTCLDY    39  36  87 NE3       30.11S
HINCKLEY       FAIR      41  39  93 NE3       30.11S
CLOQUET        CLOUDY    43  36  75 E6        30.13S
MCGREGOR       CLEAR     39  37  93 E5        30.12S
$$
MNZ071>073-080-081-089-090-097-098-181000-
   Southwest Minnesota

CITY           SKY/WX    TMP DP  RH WIND       PRES   REMARKS
MONTEVIDEO     CLEAR     52  52 100 SE6       30.01S
GRANITE FALLS  CLEAR     49  48  96 NE3       30.02S
CANBY          CLEAR     48  48  97 CALM      30.01S
MARSHALL       CLEAR     48  46  93 CALM      29.99S
REDWOOD FALLS  CLEAR     53  52  96 E9        30.01R
OLIVIA         CLEAR     54  52  94 E8        30.01S
PIPESTONE      CLEAR     55  52  88 SE6       30.00S
WINDOM         CLEAR     54  52  94 CALM      30.01S
WORTHINGTON    CLEAR     52  52 100 CALM      30.02R
JACKSON        CLEAR     52  48  87 SE3       30.01F
TRACY          CLEAR     56  52  88 CALM      30.01R
SLAYTON        CLEAR     52  51  96 CALM      30.01S
$$
MNZ065>067-074>077-082>085-091>093-181000-
   South Central Minnesota

CITY           SKY/WX    TMP DP  RH WIND       PRES   REMARKS
MANKATO        CLEAR     54  46  76 SE5       30.02S
NEW ULM        CLEAR     54  54 100 NE6       30.02R
ST JAMES       PTCLDY    54  50  87 SE5       30.02S
FAIRMONT       PTCLDY    52  46  82 S6        30.01F
GLENCOE        CLOUDY    54  51  89 NE3       30.04S
FARIBAULT      FOG       50  46  87 CALM      30.04S VSB 3/4
OWATONNA       CLEAR     52  48  87 CALM      30.03F
WASECA         CLEAR     48  45  87 E3        30.05S
ALBERT LEA     CLEAR     48  48 100 CALM      30.03F
$$
MNZ078>079-086>088-094>096-181000-
   Southeast Minnesota

CITY           SKY/WX    TMP DP  RH WIND       PRES   REMARKS
ROCHESTER      CLEAR     49  47  93 S6        30.05S
RED WING       CLEAR     52  48  87 E5        30.05S
STANTON          N/A     50  48  93 CALM      30.03S FOG
DODGE CENTER   PTCLDY    52  48  87 CALM      30.04S
WINONA         FOG       54  54 100 CALM      30.06S VSB 1/4
AUSTIN         CLEAR     46  45  93 SE3       30.04S
PRESTON        CLEAR     51  52 100 SW3       30.05S
$$
ABBREVIATIONS USED IN REMARKS
   TC - TEMPERATURES IN CELSIUS
  WCI - WIND CHILL INDEX
   HX - HEAT INDEX
  VSB - VISIBILITY
$$



USA.gov is the U.S. government's official web portal to all federal, state and local government web resources and services.